Showing default

USA 159, 26880

Orbit data source: Space-Track

USA 159, 26880 is a payload satellite owned by USAF SMC (US) in GEO that was launched on Mon, 06 Aug 2001 UTC via a TITAN 402B/IUS launch vehicle from the Air Force Eastern Test Range (AFETR). Payload-class satellites include a variety of spacecraft equipped with specific instruments for various scientific and technological missions. These include communications satellites like Starlink; space stations such as the ISS; scientific satellites like the Hubble; Earth observation satellites from companies like Planet Labs, Umbra, and HawkEye 360; GPS; miniature CubeSats for education and research; and military/defense satellites.

Loading next visibility...
Identifier
26880, 2001-033A
Orbit
GEO
Last TLE update
23 hours ago
Origin
Manufacturer
TRW
Mission
Operational Defense Classified
Bus & Motor
DSP B18, MRE-4
Mass
~2,360 kg wet, ~2,200 kg dry
Launch date (UTC)
2001-08-06 (24 years ago)
Launch vehicle
TITAN 402B/IUS
Launch site
Air Force Eastern Test Range (AFETR)
Object type
Payload
Rocket body
Debris
Shape & HBR
Cyl + 1 Pan, 11.5 m
Radar Cross Section
31.528 m², Large (>1 m²)

Expand to show TLE details & history

TLE from 23 hours ago
0 USA 159
1 26880U 01033A   25181.41531260 -.00000304  00000-0  00000-0 0  9998
2 26880  12.4527  18.8503 0001123 219.7945 140.5209  1.00270874 29434
Epoch: 2025-06-30T09:58Z
TLE epoch observation values (Epoch: 2025-06-30T09:58:03.008Z)
Latitude
0.06708°
Longitude
-49.06258°
Altitude
35,790.025 km
Speed
3.074 km/s
True Right ascension
01h 16m 42s
True Declination
0° 04' 01"
Sunlit
Object was in daylight at epoch
Visualization orbit readout
Latitude
-3.9349°
Longitude
-67.48953°
Altitude
35,789.57 km
Speed
3.074 km/s
Apparent Right ascension
00h 26m 41s
Apparent Declination
-9° 58' 38"
Sunlit
Object is in daylight
Visualization observer readout
Local Sidereal Time
20:17:07
Azimuth
116.007° SE
Elevation
13.824°
Doppler factor
1
Orbital elements
Apogee altitude
35,792.583 km
Perigee altitude
35,783.113 km
Semi-major axis
42,165.985 km
Eccentricity
0.00011
Inclination
12.4527°
RAAN
18.8503°
Arg. of periapsis
219.7945°
True anomaly
Unknown
Mean anomaly
140.5209°
Eccentric anomaly
Unknown
Mean motion
0.25067 °/min
Orbital period
1,436.16 mins
BSTAR
0
Loading historical data...
26880 neighbors
Loading maneuver chart data...
Loading SW <> Apogee altitude chart data...
Loading historical data...
Loading historical data...
Loading historical data...
Loading historical data...
Loading historical data...
Loading historical data...
Loading historical data...
Other satellites on launch #33 in the year 2001 (2001-08-06 UTC)

USA 159 Visibility forecast

Observer location: undefined°, undefined°

Span
Click to sort rows by Start time (UTC) header in descending order
Start Az.
Max El. time (UTC)
Max El. Az.
Max El.
End time (UTC)
End Az.
997 mins2025-07-01 08:38:58.554Z116.021° SE2025-07-01 15:24:58.554Z103.019° ESE23.748°2025-07-02 01:15:58.554Z121.054° SE
102 mins2025-07-02 06:56:58.554Z119.137° SE2025-07-02 08:38:58.554Z115.892° SE13.589°2025-07-02 08:38:58.554Z115.892° SE
|